Waynetown, IN (47990)

10:55 PM EST on December 26, 2014 (GMT -0500)
Winslow Drive | Change Station
CLOSE
Current Station
Personal Weather Station
Location: Crawfordsville, IN
Elevation: 725 ft
Nearby Weather Stations

Elev 725 ft 40.04 °N, 86.95 °W | Updated 12 seconds ago

Overcast
Overcast
47.5 °F
Feels Like 48 °F
N
0.9
Wind Variable Wind from South
Gusts 2.5 mph

Today
High -- | Low -- °F
--% Chance of Precip.
Yesterday
High -- | Low -- °F
Precip. -- in
8:08 AM 5:28 PM
Waxing Crescent, 32% visible
Pressure 30.10 in
Visibility 10.0 miles
Clouds Overcast 3000 ft
Windchill 48 °F
Dew Point 43 °F
Humidity 85%
Rainfall 0.00 in
Snow Depth Not available.
UV 0.0 out of 12
Pollen .10 out of 12
Air Quality Not available.
Flu Activity Not available.
SPECI KLAF 270346Z AUTO 19005KT 10SM OVC030 08/05 A3010 RMK AO2 T00830050 TSNO

More Conditions Fewer Conditions

Pressure 30.10 in
Visibility 10.0 miles
Clouds Overcast 3000 ft
Windchill 48 °F
Dew Point 43 °F
Humidity 85%
Rainfall 0.00 in
Snow Depth Not available.
UV 0.0 out of 12
Pollen .10 out of 12
Air Quality Not available.
Flu Activity Not available.
SPECI KLAF 270346Z AUTO 19005KT 10SM OVC030 08/05 A3010 RMK AO2 T00830050 TSNO

More Conditions Fewer Conditions

10-Day Weather Forecast

Almanac

Astronomy

Dec. 26, 2014 Rise Set
Actual Time
Civil Twilight
Nautical Twilight
Astronomical Twilight
Moon
Length of Visible Light
Length of Day
Tomorrow will be .
, % of the Moon is Illuminated

Today's Extremes

State Highs State Lows

Community

WunderPhotos

Upload Photos

1,780,836 photos uploaded!

WunderBlogs® & News

Nearby

Air Quality

  Air Quality AQ Index Pollutant
Not available.

Snow Depth

Station Depth Elevation

Earthquake Activity

City Distance Mag. Time & Date
Minimum magnitude displayed is 2.5.

Coastal Water Temperatures

Place Temperature

Nearby Weather Stations